• Em Portugal
  • Lista de países
  • Para 7 dias
  • Temperatura da água
  • Mapas de satélite
  • Mapa do tempo
  • Widgets de tempo
  • user-avatar
    Iniciar Sessão

    Previsão horária em Parakou

    Hoje, 18 Outubro, Quinta-feira

    Tempo Temperatura Precipitação Vento Pressão Humidade
    00:00 +26°C° 0 mm 2 m/s 727 mmHg 82%
    01:00 +26°C° 0 mm 2 m/s 727 mmHg 84%
    02:00 +25°C° 0 mm 2 m/s 727 mmHg 87%
    03:00 +25°C° 0 mm 2 m/s 727 mmHg 89%
    04:00 +24°C° 0 mm 2 m/s 727 mmHg 91%
    05:00 +24°C° 0 mm 2 m/s 727 mmHg 93%
    06:00 +24°C° 0 mm 2 m/s 727 mmHg 95%
    07:00 +26°C° 0 mm 2 m/s 727 mmHg 87%
    08:00 +28°C° 0 mm 2 m/s 727 mmHg 79%
    09:00 +30°C° 0 mm 2 m/s 728 mmHg 71%
    10:00 +31°C° 0 mm 2 m/s 727 mmHg 64%
    11:00 +34°C° 0 mm 2 m/s 727 mmHg 57%
    12:00 +36°C° 0 mm 2 m/s 726 mmHg 50%
    13:00 +35°C° 0 mm 1 m/s 726 mmHg 49%
    14:00 +35°C° 0 mm 1 m/s 725 mmHg 48%
    15:00 +35°C° 0 mm 1 m/s 724 mmHg 46%
    16:00 +33°C° 0 mm 1 m/s 724 mmHg 52%
    17:00 +31°C° 0 mm 2 m/s 724 mmHg 57%
    18:00 +30°C° 0 mm 2 m/s 725 mmHg 62%
    19:00 +29°C° 0 mm 2 m/s 725 mmHg 65%
    20:00 +28°C° 0 mm 2 m/s 726 mmHg 68%
    21:00 +28°C° 0 mm 3 m/s 727 mmHg 71%
    22:00 +27°C° 0 mm 3 m/s 727 mmHg 75%
    23:00 +27°C° 0 mm 3 m/s 726 mmHg 80%

    Amanhã, 19 Outubro, Sexta-feira

    Tempo Temperatura Precipitação Vento Pressão Humidade
    00:00 +26°C° 0 mm 3 m/s 726 mmHg 84%
    01:00 +26°C° 0 mm 2 m/s 726 mmHg 87%
    02:00 +25°C° 0 mm 2 m/s 726 mmHg 90%
    03:00 +25°C° 0 mm 2 m/s 725 mmHg 92%
    04:00 +25°C° 0 mm 2 m/s 725 mmHg 93%
    05:00 +24°C° 0 mm 2 m/s 726 mmHg 94%
    06:00 +24°C° 0 mm 2 m/s 726 mmHg 95%
    07:00 +25°C° 0 mm 2 m/s 727 mmHg 90%
    08:00 +26°C° 0 mm 2 m/s 727 mmHg 86%
    09:00 +27°C° 0 mm 2 m/s 728 mmHg 81%
    10:00 +29°C° 0 mm 2 m/s 727 mmHg 74%
    11:00 +31°C° 0 mm 2 m/s 727 mmHg 66%
    12:00 +34°C° 0 mm 2 m/s 727 mmHg 59%
    13:00 +33°C° 0 mm 1 m/s 726 mmHg 56%
    14:00 +34°C° 0 mm 1 m/s 725 mmHg 53%
    15:00 +34°C° 0 mm 1 m/s 725 mmHg 51%
    16:00 +33°C° 0.1 mm 1 m/s 725 mmHg 57%
    17:00 +31°C° 0.1 mm 1 m/s 725 mmHg 63%
    18:00 +29°C° 0.1 mm 2 m/s 725 mmHg 70%
    19:00 +28°C° 0 mm 2 m/s 726 mmHg 73%
    20:00 +28°C° 0 mm 2 m/s 726 mmHg 76%
    21:00 +27°C° 0 mm 1 m/s 727 mmHg 80%
    22:00 +27°C° 0 mm 1 m/s 727 mmHg 82%
    23:00 +26°C° 0 mm 1 m/s 726 mmHg 83%

    Depois de amanhã, 20 Outubro, Sábado

    Tempo Temperatura Precipitação Vento Pressão Humidade
    00:00 +26°C° 0 mm 1 m/s 726 mmHg 85%
    01:00 +26°C° 0 mm 1 m/s 726 mmHg 86%
    02:00 +25°C° 0 mm 1 m/s 725 mmHg 88%
    03:00 +25°C° 0 mm 1 m/s 725 mmHg 89%
    04:00 +25°C° 0 mm 1 m/s 725 mmHg 90%
    05:00 +24°C° 0 mm 1 m/s 726 mmHg 92%
    06:00 +24°C° 0 mm 1 m/s 726 mmHg 93%
    07:00 +26°C° 0 mm 1 m/s 727 mmHg 84%
    08:00 +28°C° 0 mm 2 m/s 728 mmHg 75%
    09:00 +31°C° 0 mm 2 m/s 728 mmHg 66%
    10:00 +33°C° 0 mm 1 m/s 728 mmHg 59%
    11:00 +34°C° 0 mm 0 m/s 727 mmHg 52%
    12:00 +36°C° 0 mm 0 m/s 727 mmHg 44%
    13:00 +35°C° 0 mm 0 m/s 726 mmHg 45%
    14:00 +34°C° 0 mm 0 m/s 725 mmHg 46%
    15:00 +35°C° 0 mm 1 m/s 724 mmHg 47%
    16:00 +34°C° 0 mm 1 m/s 724 mmHg 49%
    17:00 +32°C° 0 mm 1 m/s 724 mmHg 52%
    18:00 +31°C° 0 mm 1 m/s 724 mmHg 55%
    19:00 +30°C° 0 mm 1 m/s 725 mmHg 57%
    20:00 +29°C° 0 mm 1 m/s 726 mmHg 59%
    21:00 +29°C° 0 mm 1 m/s 726 mmHg 61%
    22:00 +28°C° 0 mm 2 m/s 726 mmHg 65%
    23:00 +28°C° 0 mm 2 m/s 726 mmHg 69%

    21 Outubro, Domingo

    Tempo Temperatura Precipitação Vento Pressão Humidade
    00:00 +27°C° 0 mm 2 m/s 726 mmHg 72%
    01:00 +26°C° 0 mm 2 m/s 725 mmHg 77%
    02:00 +26°C° 0 mm 2 m/s 725 mmHg 82%
    03:00 +25°C° 0 mm 2 m/s 725 mmHg 87%
    04:00 +25°C° 0 mm 2 m/s 725 mmHg 90%
    05:00 +25°C° 0 mm 2 m/s 725 mmHg 93%
    06:00 +24°C° 0 mm 2 m/s 726 mmHg 96%
    07:00 +26°C° 0 mm 2 m/s 726 mmHg 89%
    08:00 +28°C° 0 mm 2 m/s 727 mmHg 81%
    09:00 +29°C° 0 mm 2 m/s 727 mmHg 74%
    10:00 +31°C° 0 mm 2 m/s 727 mmHg 67%
    11:00 +34°C° 0 mm 2 m/s 726 mmHg 59%
    12:00 +35°C° 0 mm 2 m/s 726 mmHg 52%
    13:00 +35°C° 0 mm 2 m/s 725 mmHg 50%
    14:00 +36°C° 0 mm 2 m/s 725 mmHg 49%
    15:00 +36°C° 0 mm 2 m/s 724 mmHg 47%
    16:00 +34°C° 0 mm 2 m/s 724 mmHg 55%
    17:00 +31°C° 0 mm 2 m/s 724 mmHg 63%
    18:00 +29°C° 0 mm 3 m/s 725 mmHg 71%
    19:00 +29°C° 0 mm 2 m/s 725 mmHg 74%
    20:00 +28°C° 0 mm 2 m/s 726 mmHg 78%
    21:00 +27°C° 0 mm 2 m/s 726 mmHg 81%
    22:00 +27°C° 0 mm 2 m/s 726 mmHg 83%
    23:00 +26°C° 0 mm 2 m/s 726 mmHg 85%

    22 Outubro, Segunda-feira

    Tempo Temperatura Precipitação Vento Pressão Humidade
    00:00 +26°C° 0 mm 2 m/s 726 mmHg 87%
    01:00 +26°C° 0 mm 2 m/s 725 mmHg 88%
    02:00 +25°C° 0 mm 2 m/s 725 mmHg 90%
    03:00 +25°C° 0 mm 2 m/s 725 mmHg 91%
    04:00 +25°C° 0 mm 2 m/s 725 mmHg 93%
    05:00 +24°C° 0 mm 2 m/s 725 mmHg 95%
    06:00 +24°C° 0 mm 1 m/s 726 mmHg 97%
    07:00 +26°C° 0 mm 2 m/s 726 mmHg 88%
    08:00 +28°C° 0 mm 2 m/s 727 mmHg 79%
    09:00 +30°C° 0 mm 2 m/s 727 mmHg 70%
    10:00 +32°C° 0 mm 2 m/s 727 mmHg 62%
    11:00 +35°C° 0 mm 2 m/s 726 mmHg 55%
    12:00 +36°C° 0 mm 1 m/s 725 mmHg 47%
    13:00 +36°C° 0 mm 1 m/s 725 mmHg 45%
    14:00 +36°C° 0 mm 1 m/s 724 mmHg 42%
    15:00 +35°C° 0 mm 0 m/s 724 mmHg 40%
    16:00 +35°C° 0 mm 1 m/s 724 mmHg 44%
    17:00 +33°C° 0 mm 1 m/s 724 mmHg 49%
    18:00 +31°C° 0 mm 2 m/s 724 mmHg 53%
    19:00 +30°C° 0 mm 2 m/s 725 mmHg 56%
    20:00 +30°C° 0 mm 1 m/s 725 mmHg 59%
    21:00 +29°C° 0 mm 1 m/s 726 mmHg 62%
    22:00 +28°C° 0 mm 2 m/s 726 mmHg 66%
    23:00 +28°C° 0 mm 2 m/s 726 mmHg 70%

    23 Outubro, Terça-feira

    Tempo Temperatura Precipitação Vento Pressão Humidade
    00:00 +27°C° 0 mm 2 m/s 725 mmHg 73%
    01:00 +27°C° 0 mm 2 m/s 725 mmHg 78%
    02:00 +26°C° 0 mm 2 m/s 725 mmHg 83%
    03:00 +25°C° 0 mm 2 m/s 725 mmHg 88%
    04:00 +25°C° 0 mm 2 m/s 725 mmHg 90%
    05:00 +25°C° 0 mm 2 m/s 725 mmHg 92%
    06:00 +24°C° 0 mm 2 m/s 726 mmHg 94%
    07:00 +27°C° 0 mm 2 m/s 726 mmHg 85%
    08:00 +29°C° 0 mm 2 m/s 727 mmHg 75%
    09:00 +31°C° 0 mm 2 m/s 727 mmHg 66%
    10:00 +34°C° 0 mm 2 m/s 726 mmHg 58%
    11:00 +36°C° 0 mm 1 m/s 726 mmHg 50%
    12:00 +39°C° 0 mm 1 m/s 725 mmHg 42%
    13:00 +39°C° 0 mm 1 m/s 725 mmHg 39%
    14:00 +39°C° 0 mm 1 m/s 724 mmHg 37%
    15:00 +39°C° 0 mm 1 m/s 724 mmHg 34%
    16:00 +36°C° 0 mm 1 m/s 724 mmHg 38%
    17:00 +34°C° 0 mm 1 m/s 724 mmHg 42%
    18:00 +32°C° 0 mm 1 m/s 724 mmHg 46%
    19:00 +31°C° 0 mm 2 m/s 725 mmHg 50%
    20:00 +30°C° 0 mm 2 m/s 725 mmHg 54%
    21:00 +30°C° 0 mm 2 m/s 726 mmHg 57%
    22:00 +29°C° 0 mm 2 m/s 726 mmHg 63%
    23:00 +28°C° 0 mm 2 m/s 726 mmHg 69%
    Mostrar mais